Terug naar catalogus

OPS 6063

ActiefMilitairGEO
NORAD 6380·PAYLOAD·🇺🇸 United States

Gelanceerd Mar 6, 1973 vanaf Cape Canaveral Space Force Station

Loading…

TLE

VersSource: Space-Track

Epoch: Sep 14, 2026, 14:09 UTC

1 06380U 73013A   26257.59026774 -.00000106  00000-0  00000-0 0  9991
2 06380   0.2031 198.6474 0022229 336.3685 107.2866  1.00269422 27325

Volg OPS 6063 in realtime met AllMySat

Download on the App Store